CCS919 EDDF-EDDM

Flight info

Callsign CCS919
Flight time 0h 36m
Altitude 23000
Route CINDY8S/18 CINDY Z74 HAREM T104 ROKIL
Aircraft C919/M-SDE2E3FGIJ1LORWXYZ/HB1

Departure

Time 2026-04-17 22:00
Airport Frankfurt Main Airport (EDDF)

Arrival

Time 2026-04-17 22:36
Airport Munich Airport (EDDM)
Time Latitude Longitude Altitude Speed Heading
2026-04-17 21:05 50.04688 8.56699 364 ft 0 kts 115°
2026-04-17 21:05 50.04687 8.56700 364 ft 0 kts 115°
2026-04-17 21:40 50.04691 8.56686 363 ft 2 kts 115°
2026-04-17 21:40 50.04698 8.56664 361 ft 2 kts 118°
2026-04-17 21:41 50.04706 8.56641 360 ft 2 kts 118°
2026-04-17 21:41 50.04718 8.56628 364 ft 2 kts 182°
2026-04-17 21:41 50.04733 8.56635 359 ft 2 kts 209°
2026-04-17 21:41 50.04748 8.56647 365 ft 2 kts 207°
2026-04-17 21:42 50.04762 8.56658 364 ft 2 kts 207°
2026-04-17 21:42 50.04763 8.56659 364 ft 0 kts 207°
2026-04-17 21:50 50.04754 8.56650 364 ft 6 kts 218°
2026-04-17 21:50 50.04704 8.56557 358 ft 14 kts 221°
2026-04-17 21:50 50.04607 8.56481 358 ft 17 kts 205°
2026-04-17 21:51 50.04513 8.56366 360 ft 18 kts 243°
2026-04-17 21:51 50.04469 8.56181 362 ft 19 kts 250°
2026-04-17 21:51 50.04396 8.56033 358 ft 17 kts 178°
2026-04-17 21:51 50.04349 8.56052 359 ft 0 kts 158°
2026-04-17 21:52 50.04348 8.56052 359 ft 1 kts 158°
2026-04-17 21:52 50.04313 8.56074 357 ft 11 kts 153°
2026-04-17 21:52 50.04267 8.56188 362 ft 14 kts 148°
2026-04-17 21:52 50.04189 8.56235 362 ft 0 kts 159°
2026-04-17 21:53 50.04186 8.56237 355 ft 2 kts 159°
2026-04-17 21:53 50.04137 8.56251 355 ft 11 kts 202°
2026-04-17 21:54 50.04094 8.56137 360 ft 14 kts 248°
2026-04-17 21:54 50.04054 8.55976 353 ft 17 kts 249°
2026-04-17 21:54 50.04010 8.55789 352 ft 19 kts 250°
2026-04-17 21:54 50.03962 8.55584 358 ft 21 kts 250°
2026-04-17 21:55 50.03912 8.55376 352 ft 20 kts 250°
2026-04-17 21:55 50.03860 8.55163 354 ft 22 kts 250°
2026-04-17 21:55 50.03808 8.54940 359 ft 23 kts 249°
2026-04-17 21:55 50.03750 8.54701 355 ft 24 kts 249°
2026-04-17 21:56 50.03689 8.54443 349 ft 26 kts 249°
2026-04-17 21:56 50.03625 8.54180 347 ft 26 kts 247°
2026-04-17 21:56 50.03561 8.53912 347 ft 27 kts 250°
2026-04-17 21:56 50.03495 8.53634 340 ft 28 kts 249°
2026-04-17 21:57 50.03427 8.53348 337 ft 29 kts 250°
2026-04-17 21:57 50.03356 8.53053 334 ft 30 kts 249°
2026-04-17 21:57 50.03285 8.52754 335 ft 28 kts 248°
2026-04-17 21:57 50.03181 8.52613 337 ft 18 kts 204°
2026-04-17 21:58 50.03128 8.52596 337 ft 0 kts 182°
2026-04-17 21:59 50.02865 8.52598 334 ft 84 kts 180°
2026-04-17 21:59 50.02013 8.52611 339 ft 157 kts 179°
2026-04-17 21:59 50.00829 8.52636 813 ft 175 kts 179°
2026-04-17 22:00 49.99580 8.52653 1366 ft 174 kts 179°
2026-04-17 22:00 49.98443 8.52669 1759 ft 162 kts 179°
2026-04-17 22:00 49.97311 8.52686 2331 ft 165 kts 179°
2026-04-17 22:00 49.96149 8.52704 2884 ft 170 kts 179°
2026-04-17 22:01 49.94943 8.52793 3392 ft 178 kts 165°
2026-04-17 22:01 49.93962 8.53915 3877 ft 184 kts 120°
2026-04-17 22:01 49.93619 8.55960 4041 ft 215 kts 94°
2026-04-17 22:01 49.93652 8.58456 3971 ft 246 kts 88°
2026-04-17 22:02 49.93727 8.61216 4316 ft 265 kts 88°
2026-04-17 22:02 49.93789 8.64107 4684 ft 270 kts 89°
2026-04-17 22:02 49.93834 8.67008 5425 ft 272 kts 89°
2026-04-17 22:02 49.93850 8.69954 6263 ft 275 kts 97°
2026-04-17 22:03 49.93200 8.72692 7005 ft 273 kts 128°
2026-04-17 22:03 49.91794 8.74647 7711 ft 273 kts 145°
2026-04-17 22:03 49.90251 8.76401 8491 ft 276 kts 145°
2026-04-17 22:03 49.88692 8.78180 9254 ft 280 kts 145°
2026-04-17 22:04 49.87120 8.79971 10039 ft 282 kts 145°
2026-04-17 22:04 49.85613 8.81891 10661 ft 289 kts 130°
2026-04-17 22:04 49.84553 8.84575 11201 ft 296 kts 119°
2026-04-17 22:04 49.83615 8.87438 11807 ft 301 kts 116°
2026-04-17 22:05 49.82723 8.90400 12401 ft 306 kts 117°
2026-04-17 22:05 49.81724 8.93348 12890 ft 316 kts 120°
2026-04-17 22:05 49.80635 8.96425 13068 ft 335 kts 120°
2026-04-17 22:05 49.79484 8.99676 13272 ft 353 kts 120°
2026-04-17 22:06 49.78273 9.03093 13496 ft 370 kts 120°
2026-04-17 22:06 49.77020 9.06626 14017 ft 377 kts 120°
2026-04-17 22:06 49.75771 9.10148 14614 ft 380 kts 120°
2026-04-17 22:06 49.74495 9.13745 15196 ft 383 kts 120°
2026-04-17 22:07 49.73209 9.17369 15756 ft 387 kts 120°
2026-04-17 22:07 49.71908 9.21031 16317 ft 390 kts 120°
2026-04-17 22:07 49.70558 9.24688 16865 ft 394 kts 122°
2026-04-17 22:07 49.69061 9.28246 17418 ft 397 kts 126°
2026-04-17 22:08 49.67414 9.31683 17953 ft 400 kts 129°
2026-04-17 22:08 49.65624 9.34988 18465 ft 403 kts 133°
2026-04-17 22:08 49.63778 9.38182 18917 ft 405 kts 133°
2026-04-17 22:08 49.61890 9.41437 19376 ft 408 kts 133°
2026-04-17 22:09 49.59993 9.44705 19808 ft 411 kts 133°
2026-04-17 22:09 49.58078 9.47999 20229 ft 414 kts 132°
2026-04-17 22:09 49.56154 9.51309 20684 ft 416 kts 132°
2026-04-17 22:09 49.54217 9.54641 21103 ft 419 kts 132°
2026-04-17 22:10 49.52268 9.57989 21495 ft 421 kts 132°
2026-04-17 22:10 49.50306 9.61359 21907 ft 424 kts 132°
2026-04-17 22:10 49.48335 9.64742 22305 ft 426 kts 132°
2026-04-17 22:10 49.46373 9.68107 22687 ft 429 kts 132°
2026-04-17 22:11 49.44377 9.71528 23062 ft 431 kts 132°
2026-04-17 22:11 49.42369 9.74968 23213 ft 433 kts 132°
2026-04-17 22:11 49.40358 9.78411 23211 ft 433 kts 132°
2026-04-17 22:11 49.38345 9.81855 23215 ft 438 kts 132°
2026-04-17 22:12 49.36283 9.85378 23217 ft 450 kts 132°
2026-04-17 22:12 49.34168 9.88990 23217 ft 461 kts 132°
2026-04-17 22:12 49.32001 9.92689 23213 ft 471 kts 132°
2026-04-17 22:12 49.29787 9.96465 23213 ft 481 kts 132°
2026-04-17 22:13 49.27557 10.00267 23213 ft 492 kts 132°
2026-04-17 22:13 49.25260 10.04178 23210 ft 495 kts 132°
2026-04-17 22:13 49.22956 10.08100 23209 ft 495 kts 132°
2026-04-17 22:13 49.20651 10.12019 23208 ft 495 kts 132°
2026-04-17 22:14 49.18347 10.15935 23213 ft 495 kts 132°
2026-04-17 22:14 49.16040 10.19852 23213 ft 495 kts 132°
2026-04-17 22:14 49.13733 10.23767 23215 ft 497 kts 132°
2026-04-17 22:14 49.11424 10.27683 23212 ft 497 kts 132°
2026-04-17 22:15 49.09140 10.31552 23218 ft 497 kts 132°
2026-04-17 22:15 49.06828 10.35466 23219 ft 497 kts 132°
2026-04-17 22:15 49.04513 10.39382 23210 ft 496 kts 132°
2026-04-17 22:15 49.02200 10.43283 23217 ft 496 kts 133°
2026-04-17 22:16 48.99841 10.47118 23226 ft 496 kts 134°
2026-04-17 22:16 48.97443 10.50901 23218 ft 496 kts 134°
2026-04-17 22:16 48.95045 10.54673 22948 ft 494 kts 134°
2026-04-17 22:16 48.92691 10.58373 22403 ft 481 kts 134°
2026-04-17 22:17 48.90392 10.61983 21893 ft 480 kts 134°
2026-04-17 22:17 48.88078 10.65614 21380 ft 476 kts 134°
2026-04-17 22:17 48.85785 10.69210 20866 ft 470 kts 134°
2026-04-17 22:17 48.83553 10.72708 20357 ft 452 kts 134°
2026-04-17 22:18 48.81405 10.76072 19859 ft 439 kts 134°
2026-04-17 22:18 48.79287 10.79387 19375 ft 435 kts 134°
2026-04-17 22:18 48.77193 10.82661 18889 ft 430 kts 134°
2026-04-17 22:18 48.75119 10.85903 18261 ft 424 kts 134°
2026-04-17 22:19 48.73092 10.89068 17584 ft 414 kts 134°
2026-04-17 22:19 48.71104 10.92173 16932 ft 407 kts 134°
2026-04-17 22:19 48.69176 10.95180 16299 ft 400 kts 134°
2026-04-17 22:19 48.67251 10.98181 15681 ft 395 kts 134°
2026-04-17 22:20 48.65353 11.01139 15067 ft 390 kts 134°
2026-04-17 22:20 48.63471 11.04069 14462 ft 386 kts 134°
2026-04-17 22:20 48.61609 11.06967 13861 ft 383 kts 134°
2026-04-17 22:20 48.59764 11.09838 13197 ft 379 kts 134°
2026-04-17 22:21 48.57931 11.12680 12549 ft 375 kts 135°
2026-04-17 22:21 48.55950 11.15203 11919 ft 371 kts 142°
2026-04-17 22:21 48.53856 11.17458 11298 ft 368 kts 146°
2026-04-17 22:21 48.51758 11.19540 10688 ft 364 kts 145°
2026-04-17 22:22 48.49730 11.21797 10088 ft 361 kts 141°
2026-04-17 22:22 48.47824 11.24236 9426 ft 358 kts 138°
2026-04-17 22:22 48.45977 11.26722 8769 ft 354 kts 138°
2026-04-17 22:22 48.44150 11.29181 8133 ft 351 kts 138°
2026-04-17 22:23 48.42488 11.31834 7487 ft 347 kts 121°
2026-04-17 22:23 48.41666 11.35182 6902 ft 341 kts 97°
2026-04-17 22:23 48.41767 11.38653 6382 ft 334 kts 83°
2026-04-17 22:23 48.42037 11.42044 6191 ft 317 kts 83°
2026-04-17 22:24 48.42289 11.45225 6199 ft 295 kts 83°
2026-04-17 22:24 48.42522 11.48182 6201 ft 275 kts 83°
2026-04-17 22:24 48.42744 11.50995 6211 ft 270 kts 83°
2026-04-17 22:24 48.42965 11.53794 6209 ft 269 kts 83°
2026-04-17 22:25 48.43186 11.56591 6209 ft 269 kts 83°
2026-04-17 22:25 48.43406 11.59389 6212 ft 269 kts 83°
2026-04-17 22:25 48.43627 11.62188 6210 ft 269 kts 83°
2026-04-17 22:25 48.43844 11.64952 6210 ft 269 kts 83°
2026-04-17 22:26 48.44064 11.67752 6210 ft 269 kts 83°
2026-04-17 22:26 48.44284 11.70552 6210 ft 269 kts 83°
2026-04-17 22:26 48.44502 11.73342 6208 ft 265 kts 83°
2026-04-17 22:26 48.44711 11.76004 6202 ft 245 kts 83°
2026-04-17 22:27 48.44905 11.78484 6220 ft 237 kts 83°
2026-04-17 22:27 48.45098 11.80944 6213 ft 236 kts 83°
2026-04-17 22:27 48.45290 11.83400 6210 ft 236 kts 83°
2026-04-17 22:27 48.45480 11.85829 6213 ft 236 kts 83°
2026-04-17 22:28 48.45671 11.88287 6210 ft 236 kts 83°
2026-04-17 22:28 48.45863 11.90747 6209 ft 237 kts 83°
2026-04-17 22:28 48.46055 11.93209 6210 ft 237 kts 83°
2026-04-17 22:28 48.46247 11.95669 6208 ft 237 kts 83°
2026-04-17 22:29 48.46438 11.98130 6208 ft 237 kts 83°
2026-04-17 22:29 48.46629 12.00591 6207 ft 237 kts 83°
2026-04-17 22:29 48.46820 12.03051 6206 ft 236 kts 83°
2026-04-17 22:29 48.47008 12.05470 5927 ft 230 kts 83°
2026-04-17 22:30 48.47194 12.07878 5344 ft 231 kts 84°
2026-04-17 22:30 48.46978 12.10214 5009 ft 227 kts 119°
2026-04-17 22:30 48.45866 12.11855 4982 ft 232 kts 155°
2026-04-17 22:30 48.44282 12.12359 5005 ft 236 kts 172°
2026-04-17 22:31 48.42722 12.12552 4946 ft 215 kts 185°
2026-04-17 22:31 48.41367 12.11626 5021 ft 221 kts 224°
2026-04-17 22:31 48.40456 12.09861 4973 ft 203 kts 233°
2026-04-17 22:31 48.39684 12.08238 5006 ft 180 kts 233°
2026-04-17 22:32 48.39008 12.06675 4979 ft 178 kts 244°
2026-04-17 22:32 48.38575 12.04908 4795 ft 181 kts 251°
2026-04-17 22:32 48.38274 12.03087 4403 ft 183 kts 261°
2026-04-17 22:32 48.38135 12.01182 4054 ft 183 kts 264°
2026-04-17 22:33 48.37998 11.99270 3697 ft 184 kts 263°
2026-04-17 22:33 48.37854 11.97403 3456 ft 176 kts 263°
2026-04-17 22:33 48.37719 11.95625 3226 ft 170 kts 263°
2026-04-17 22:33 48.37584 11.93867 3019 ft 168 kts 263°
2026-04-17 22:34 48.37451 11.92126 2809 ft 168 kts 262°
2026-04-17 22:34 48.37317 11.90382 2589 ft 167 kts 262°
2026-04-17 22:34 48.37185 11.88665 2361 ft 163 kts 263°
2026-04-17 22:34 48.37057 11.86990 2137 ft 159 kts 264°
2026-04-17 22:35 48.36932 11.85349 1903 ft 157 kts 264°
2026-04-17 22:35 48.36810 11.83748 1720 ft 156 kts 264°
2026-04-17 22:35 48.36687 11.82126 1525 ft 155 kts 264°
2026-04-17 22:35 48.36566 11.80517 1477 ft 155 kts 263°
2026-04-17 22:36 48.36450 11.79028 1479 ft 128 kts 264°
2026-04-17 22:36 48.36367 11.77935 1487 ft 82 kts 262°
2026-04-17 22:36 48.36315 11.77252 1487 ft 45 kts 262°
2026-04-17 22:36 48.36253 11.76953 1486 ft 24 kts 201°
2026-04-17 22:37 48.36091 11.76963 1477 ft 24 kts 173°
2026-04-17 22:37 48.35958 11.77030 1482 ft 19 kts 130°
2026-04-17 22:37 48.35934 11.77215 1476 ft 19 kts 89°
2026-04-17 22:37 48.35948 11.77420 1475 ft 20 kts 82°
2026-04-17 22:38 48.35958 11.77575 1487 ft 0 kts 84°
2026-04-17 22:38 48.35961 11.77605 1487 ft 8 kts 83°
2026-04-17 22:38 48.35923 11.77680 1476 ft 12 kts 168°
2026-04-17 22:38 48.35826 11.77698 1487 ft 18 kts 174°
2026-04-17 22:39 48.35686 11.77724 1487 ft 21 kts 172°
2026-04-17 22:39 48.35534 11.77750 1482 ft 23 kts 174°
2026-04-17 22:39 48.35338 11.77927 1487 ft 18 kts 82°
2026-04-17 22:40 48.35349 11.78105 1479 ft 13 kts 104°
2026-04-17 22:40 48.35314 11.78215 1478 ft 8 kts 101°
2026-04-17 22:40 48.35319 11.78304 1487 ft 8 kts 84°
2026-04-17 22:40 48.35321 11.78327 1487 ft 0 kts 83°